[[{"header":{"parameterUnit":"m.s-1","parameterCategory":1,"la1":30.2991,"la2":30.254,"lo1":-89.0895,"lo2":-89.0444,"dy":0.0017,"dx":0.0017,"nx":28,"ny":28,"refTime":"2023-07-24T09:00:00:Z","depth":0,"parameterNumber":2,"parameterNumberName":"U-component_of_WINDS"},"data":[0,0,0,0,0,0,0,0,0,0,0,0,0,0,0,0,0,0,0,0,0,0,0,0,0,0,0,0,0,0,0,0,0,0,0,0,0,0,0,0,0,0,0,0,0,0,0,0,0,0,0,0,0,0,0,0,0,0,1.1454,1.1455,0,1.1542,1.1543,1.1544,1.1575,1.1575,1.1574,1.1574,1.1663,1.1666,1.1669,0,0,0,0,0,0,0,0,0,0,0,0,0,1.1313,1.1315,1.1454,1.1455,1.1456,1.1542,1.1543,1.1544,1.1575,1.1575,1.1574,1.1574,1.1663,1.1666,1.1669,0,0,0,0,0,0,0,0,0,0,0,0,0,1.1385,1.1316,1.1454,1.1482,1.1486,1.1541,1.1543,1.1544,1.1575,1.1575,1.1574,1.1574,1.1662,1.1665,1.1669,1.1704,0,0,1.1682,1.1683,0,0,0,0,0,0,0,0,1.138,1.139,1.1477,1.148,1.1484,1.1547,1.1526,1.1598,1.1575,1.1541,1.1574,1.1573,1.1625,1.1632,1.1649,1.1708,1.1712,1.1682,1.1684,1.1686,1.1687,0,0,0,0,0,0,0,1.1375,1.1386,1.1489,1.1478,1.1483,1.149,1.15,1.154,1.1585,1.1544,1.1547,1.1556,1.1627,1.1646,1.1652,1.1713,1.1682,1.1685,1.1688,1.1689,1.1803,1.1803,0,0,0,0,0,0,1.1366,1.1382,1.1486,1.1492,1.143,1.1493,1.1504,1.1527,1.1584,1.1593,1.1557,1.1558,1.1639,1.1647,1.1655,1.1698,1.1686,1.169,1.1692,1.1802,1.1803,1.1803,0,0,0,0,0,0,1.1363,1.1375,1.1483,1.1437,1.1452,1.1496,1.1522,1.1529,1.1548,1.1594,1.1602,1.1568,1.1639,1.1649,1.1691,1.1702,1.1692,1.1695,1.1801,1.1802,1.1803,1.1785,0,0,0,0,0,0,1.1359,1.1374,1.1387,1.1437,1.1454,1.1517,1.1523,1.1531,1.1555,1.1557,1.1606,1.1614,1.1639,1.1685,1.1695,1.1707,1.1698,1.1801,1.1802,1.1803,1.1785,1.1785,1.1785,0,0,0,0,0,1.1353,1.1379,1.1388,1.14,1.1472,1.1518,1.1527,1.1556,1.1556,1.1569,1.1599,1.1612,1.1699,1.1689,1.1701,1.1714,1.18,1.1801,1.1803,1.1785,1.1785,1.1785,0,0,0,0,0,0,1.1329,1.1386,1.1397,1.1439,1.1473,1.1523,1.1542,1.1556,1.1591,1.1591,1.1625,1.1636,1.1675,1.1699,1.1686,1.175,1.175,1.1754,1.1733,1.1733,1.1734,1.1727,1.1702,0,0,0,0,0,1.1328,1.1361,1.1409,1.1442,1.1459,1.1497,1.1518,1.1537,1.1574,1.1589,1.1621,1.1656,1.1691,1.1714,1.1749,1.1788,1.1799,1.1803,1.1804,1.1804,1.1806,1.1828,1.183,1.1808,1.1808,1.1808,0,0,1.1328,1.1363,1.1382,1.1438,1.1467,1.1499,1.1509,1.1543,1.1568,1.1594,1.1635,1.166,1.1701,1.1742,1.1761,1.1763,1.1815,1.1805,1.1805,1.1808,1.183,1.1832,1.1834,1.1809,1.1809,1.1808,0,0,1.1343,1.1373,1.1404,1.1432,1.1476,1.1501,1.1508,1.1556,1.1573,1.1615,1.1635,1.1664,1.1724,1.1753,1.1775,1.18,1.1813,1.181,1.1812,1.1833,1.1835,1.1836,1.1845,1.1847,1.1813,1.1813,1.1813,0,1.1337,1.1387,1.1417,1.1451,1.1474,1.1499,1.153,1.1556,1.1609,1.1624,1.1625,1.17,1.173,1.1777,1.1783,1.1801,1.1809,1.1805,1.1832,1.1834,1.1836,1.1844,1.1848,1.1812,1.1812,1.1812,1.1813,0,1.1377,1.1411,1.143,1.148,1.1506,1.1538,1.1573,1.1595,1.1612,1.1637,1.1679,1.1715,1.1757,1.177,1.1787,1.1819,1.1819,1.1825,1.1827,1.1837,1.1845,1.1849,1.1811,1.1812,1.1812,1.1812,0,0,1.1379,1.1445,1.1452,1.1474,1.1524,1.1551,1.1583,1.1625,1.1643,1.1678,1.1706,1.1755,1.1762,1.1787,1.1807,1.1825,1.1842,1.183,1.1831,1.183,1.1879,1.1874,1.1877,1.1851,1.1852,1.1853,1.1876,0,1.1401,1.146,1.1488,1.1535,1.1566,1.159,1.1619,1.1651,1.1675,1.1706,1.1732,1.1766,1.1773,1.1788,1.1807,1.1836,1.1852,1.1835,1.1877,1.1878,1.1865,1.1881,1.1876,1.1896,1.1879,1.188,1.188,0,1.1434,1.1469,1.1518,1.1563,1.1578,1.1603,1.1642,1.1671,1.1709,1.1725,1.1752,1.1772,1.1806,1.1805,1.1852,1.184,1.1859,1.1875,1.1877,1.1882,1.1879,1.1886,1.1903,1.1906,1.1886,1.1885,1.1885,0,1.1429,1.1489,1.1527,1.1545,1.1599,1.1616,1.1639,1.1676,1.1699,1.1733,1.1748,1.1786,1.1807,1.1836,1.1865,1.1861,1.1909,1.1911,1.1923,1.1922,1.1932,1.1931,1.1951,1.1945,1.1945,1.1944,1.1944,0,1.145,1.148,1.1525,1.1548,1.1582,1.1613,1.1645,1.167,1.1703,1.1731,1.1754,1.1779,1.1816,1.1846,1.1868,1.1904,1.1913,1.1927,1.1933,1.1925,1.1923,1.1937,1.1937,1.1945,1.1945,1.1945,1.1945,0,1.1451,1.1483,1.1525,1.1573,1.1585,1.1607,1.1648,1.1671,1.1695,1.173,1.174,1.1779,1.1816,1.1847,1.1895,1.1911,1.1947,1.1954,1.1934,1.1937,1.1947,1.1946,1.1978,1.1983,1.1973,1.1973,1.1973,0,1.1462,1.1485,1.1535,1.1555,1.1578,1.161,1.1634,1.1665,1.1689,1.1733,1.175,1.1788,1.182,1.1877,1.191,1.1946,1.1954,1.1963,1.196,1.1951,1.1954,1.1952,1.1954,1.1963,1.1963,1.1963,1.1963,0,1.1478,1.1492,1.1525,1.1563,1.159,1.1622,1.1654,1.1669,1.1707,1.1732,1.1769,1.1794,1.1843,1.188,1.192,1.1944,1.1959,1.1963,1.1968,1.196,1.1947,1.1954,1.1934,1.1962,1.1962,1.1962,1.1962,1.1962,1.1484,1.1505,1.1543,1.1579,1.1606,1.1636,1.1659,1.1687,1.1719,1.1761,1.1778,1.1816,1.1852,1.1908,1.1931,1.1961,1.1964,1.1971,1.1972,1.1974,1.1972,1.1943,1.1969,1.1969,1.1969,1.1969,1.1969,0,1.15,1.1526,1.1558,1.1602,1.163,1.1643,1.1679,1.1701,1.1734,1.1767,1.1798,1.184,1.1877,1.1912,1.1949,1.1966,1.1974,1.1975,1.1974,1.1979,1.1968,1.196,1.1968,1.1968,1.1968,1.1968,1.1968,1.1968,1.1512,1.1548,1.1567,1.1618,1.1643,1.1681,1.17,1.1727,1.1753,1.18,1.183,1.1853,1.1886,1.1927,1.196,1.1969,1.1982,1.1981,1.1992,1.198,1.198,1.198,1.1972,1.1983,1.1983,1.2001,1.2001,1.2001]},{"header":{"parameterUnit":"m.s-1","parameterCategory":1,"la1":30.2991,"la2":30.254,"lo1":-89.0895,"lo2":-89.0444,"dy":0.0017,"dx":0.0017,"nx":28,"ny":28,"refTime":"2023-07-24T09:00:00:Z","depth":0,"parameterNumber":3,"parameterNumberName":"V-component_of_WINDS"},"data":[0,0,0,0,0,0,0,0,0,0,0,0,0,0,0,0,0,0,0,0,0,0,0,0,0,0,0,0,0,0,0,0,0,0,0,0,0,0,0,0,0,0,0,0,0,0,0,0,0,0,0,0,0,0,0,0,0,0,3.3296,3.3295,0,3.3224,3.3223,3.3223,3.3193,3.3193,3.3193,3.3193,3.3112,3.311,3.3108,0,0,0,0,0,0,0,0,0,0,0,0,0,3.3399,3.3398,3.3296,3.3295,3.3294,3.3224,3.3223,3.3222,3.3193,3.3193,3.3193,3.3193,3.3113,3.311,3.3107,0,0,0,0,0,0,0,0,0,0,0,0,0,3.3344,3.3397,3.3296,3.3271,3.3268,3.3225,3.3223,3.3222,3.3193,3.3193,3.3193,3.3193,3.3114,3.311,3.3107,3.3081,0,0,3.3096,3.3095,0,0,0,0,0,0,0,0,3.3347,3.334,3.3276,3.3273,3.3269,3.3218,3.323,3.3174,3.3193,3.3221,3.3193,3.3194,3.3147,3.314,3.3126,3.3077,3.3073,3.3096,3.3094,3.3093,3.3092,0,0,0,0,0,0,0,3.3351,3.3343,3.3267,3.3275,3.3271,3.3261,3.3253,3.3219,3.3183,3.3219,3.3216,3.3209,3.3145,3.313,3.3124,3.3072,3.3096,3.3093,3.3091,3.309,3.2995,3.2995,0,0,0,0,0,0,3.336,3.3346,3.327,3.3265,3.331,3.3259,3.325,3.3234,3.3183,3.3176,3.3209,3.3208,3.3135,3.3128,3.3121,3.3086,3.3093,3.3089,3.3087,3.2996,3.2995,3.2995,0,0,0,0,0,0,3.3362,3.3353,3.3272,3.3305,3.3294,3.3257,3.3239,3.3232,3.3217,3.3176,3.3168,3.32,3.3135,3.3126,3.3091,3.3083,3.3088,3.3085,3.2996,3.2996,3.2995,3.3016,0,0,0,0,0,0,3.3365,3.3354,3.3346,3.3305,3.3293,3.3246,3.3238,3.3231,3.3212,3.321,3.3166,3.3159,3.3135,3.3096,3.3088,3.3078,3.3082,3.2997,3.2996,3.2995,3.3016,3.3016,3.3016,0,0,0,0,0,3.3369,3.3353,3.3346,3.3336,3.3281,3.3246,3.3238,3.3213,3.3212,3.3202,3.3175,3.316,3.3085,3.3093,3.3083,3.3072,3.2997,3.2996,3.2995,3.3016,3.3016,3.3016,0,0,0,0,0,0,3.3391,3.3347,3.3338,3.3309,3.3282,3.3241,3.3227,3.3214,3.3185,3.3184,3.3151,3.3142,3.3109,3.3087,3.3096,3.3043,3.304,3.3037,3.3059,3.3059,3.3059,3.3065,3.3079,0,0,0,0,0,3.3393,3.337,3.3332,3.331,3.3297,3.3265,3.3248,3.3231,3.32,3.3188,3.3158,3.3127,3.3096,3.3076,3.3045,3.3013,3.3001,3.3,3.3,3.3001,3.2998,3.2977,3.2976,3.2992,3.2992,3.2992,0,0,3.3396,3.3369,3.3356,3.3314,3.3291,3.3265,3.3255,3.3229,3.3209,3.3183,3.3149,3.3126,3.3088,3.3054,3.3037,3.3035,3.2991,3.2999,3.3,3.2997,3.2976,3.2975,3.2973,3.2991,3.2991,3.2991,0,0,3.3388,3.3367,3.3346,3.3323,3.3288,3.3267,3.3262,3.3223,3.3207,3.3173,3.3153,3.3127,3.3075,3.3049,3.3029,3.3011,3.2996,3.3002,3.3003,3.2983,3.2982,3.298,3.2973,3.297,3.2999,3.2999,3.2999,0,3.3395,3.3359,3.3336,3.3311,3.3292,3.327,3.3247,3.3225,3.3181,3.3167,3.3165,3.3099,3.3072,3.3031,3.3027,3.3012,3.3003,3.3006,3.2984,3.2983,3.2981,3.2973,3.2971,3.3,3.3,3.3,3.3,0,3.3369,3.3344,3.333,3.3292,3.3271,3.3247,3.3217,3.3199,3.3184,3.3162,3.3126,3.3093,3.3055,3.3044,3.3028,3.3,3.2999,3.2991,3.2987,3.2981,3.2973,3.297,3.3002,3.3001,3.3001,3.3001,0,0,3.3373,3.3322,3.3317,3.3299,3.3259,3.3238,3.3212,3.3177,3.3161,3.3131,3.3107,3.3064,3.3056,3.3033,3.3014,3.2997,3.2983,3.2991,3.2989,3.299,3.2948,3.2954,3.2951,3.2973,3.2973,3.2972,3.2951,0,3.3359,3.3315,3.3293,3.3257,3.3232,3.321,3.3187,3.3159,3.3137,3.3111,3.3086,3.3056,3.3049,3.3035,3.3017,3.2989,3.2974,3.299,3.2948,3.2947,3.2958,3.2947,3.2953,3.2935,3.2948,3.2947,3.2947,0,3.3338,3.3311,3.3273,3.3236,3.3224,3.3205,3.317,3.3146,3.3113,3.3098,3.3073,3.3054,3.3023,3.3022,3.2977,3.2989,3.297,3.2953,3.2952,3.2946,3.2946,3.294,3.2928,3.2925,3.2942,3.2942,3.2943,0,3.3343,3.3297,3.3269,3.3254,3.3209,3.3196,3.3176,3.3143,3.3123,3.3092,3.3079,3.3044,3.3024,3.2996,3.2967,3.297,3.2925,3.2922,3.291,3.291,3.2901,3.2901,3.2885,3.289,3.289,3.289,3.2891,0,3.333,3.3307,3.3271,3.3253,3.3226,3.3199,3.3173,3.3151,3.3122,3.3097,3.3076,3.3052,3.3017,3.2988,3.2965,3.2931,3.2922,3.2907,3.2901,3.2909,3.2911,3.2895,3.2895,3.289,3.289,3.289,3.289,0,3.3332,3.3306,3.3274,3.3235,3.3225,3.3206,3.3172,3.3152,3.313,3.3099,3.309,3.3054,3.3019,3.2988,3.2942,3.2926,3.289,3.2883,3.2903,3.2899,3.2888,3.289,3.2861,3.2855,3.2866,3.2866,3.2865,0,3.3325,3.3307,3.3267,3.3251,3.3232,3.3205,3.3186,3.3158,3.3137,3.3098,3.3082,3.3047,3.3017,3.2962,3.293,3.2893,3.2884,3.2877,3.2879,3.2886,3.2883,3.2884,3.2881,3.2877,3.2877,3.2877,3.2877,0,3.3314,3.3303,3.3276,3.3245,3.3223,3.3197,3.3169,3.3156,3.3122,3.31,3.3066,3.3043,3.2996,3.296,3.2921,3.2897,3.288,3.2877,3.2872,3.2879,3.289,3.2883,3.2902,3.2877,3.2877,3.2877,3.2877,3.2877,3.331,3.3293,3.3263,3.3234,3.3211,3.3186,3.3165,3.3141,3.3113,3.3075,3.3059,3.3024,3.2988,3.2934,3.291,3.288,3.2877,3.287,3.2868,3.2866,3.2867,3.2896,3.2873,3.2873,3.2873,3.2873,3.2873,0,3.3298,3.3277,3.3251,3.3215,3.3191,3.3181,3.3149,3.3129,3.31,3.307,3.3041,3.3001,3.2965,3.2931,3.2893,3.2875,3.2866,3.2866,3.2866,3.2861,3.2873,3.2881,3.2874,3.2874,3.2874,3.2874,3.2874,3.2874,3.3289,3.3259,3.3244,3.3202,3.318,3.3148,3.3131,3.3106,3.3082,3.3039,3.3011,3.2989,3.2956,3.2916,3.2882,3.2872,3.2859,3.286,3.2848,3.286,3.286,3.286,3.2867,3.2858,3.2858,3.2838,3.2838,3.2838]}]]